Temp
-8 -8 -8 -8 -8 -8 -8 -8 -8 -8 -8 -8 -8 -8 -8 -8 -8 -8 -8 -8 -8 -8 -8 -8 -8 -8 -8 -8 -8 -8 -8 -9 -9 -9 -9 -9 -9 -9 -9 -9 -9 -9
-8 -8 -8 -8 -8 -8 -8 -8 -8 -8 -8 -8 -8 -8 -8 -8 -8 -8 -8 -8 -8 -8 -8 -8 -8 -8 -8 -8 -8 -8 -8 -9 -9 -9 -9 -9 -9 -9 -9 -9 -9 -9
-7 -8 -7 -7 -8 -8 -8 -8 -8 -8 -8 -8 -8 -8 -8 -8 -8 -8 -8 -8 -8 -8 -8 -8 -8 -8 -8 -8 -8 -8 -9 -9 -9 -9 -9 -9 -9 -9 -9 -9 -9 -9
-7 -7 -7 -7 -7 -8 -8 -8 -8 -8 -8 -8 -8 -9 -8 -8 -8 -8 -8 -8 -8 -8 -8 -8 -8 -8 -9 -9 -9 -9 -9 -9 -9 -9 -9 -9 -9 -9 -9 -9 -9 -9
-7 -7 -7 -7 -7 -8 -8 -8 -8 -8 -8 -8 -8 -9 -9 -8 -8 -8 -8 -8 -8 -8 -8 -8 -8 -8 -9 -9 -9 -9 -9 -9 -9 -9 -9 -9 -9 -9 -9 -9 -9 -9
-8 -8 -8 -8 -8 -7 -8 -8 -8 -8 -8 -8 -8 -9 -9 -8 -8 -8 -8 -8 -8 -8 -8 -8 -8 -9 -9 -9 -9 -9 -9 -9 -9 -9 -9 -9 -9 -9 -9 -9 -10 -10
-8 -8 -7 -8 -8 -8 -8 -8 -8 -8 -8 -8 -8 -8 -9 -9 -8 -8 -8 -8 -8 -8 -8 -8 -9 -9 -9 -9 -9 -9 -9 -9 -9 -9 -9 -9 -9 -9 -9 -10 -10 -10
-8 -8 -8 -8 -8 -8 -8 -8 -8 -8 -8 -8 -8 -8 -8 -9 -8 -8 -8 -8 -8 -8 -8 -9 -9 -9 -9 -9 -9 -9 -9 -9 -9 -9 -9 -10 -10 -10 -9 -9 -10 -10
-8 -8 -8 -8 -8 -8 -9 -9 -9 -9 -9 -8 -8 -8 -8 -8 -8 -8 -8 -8 -8 -8 -9 -9 -9 -9 -9 -9 -9 -9 -9 -9 -9 -9 -10 -10 -10 -10 -9 -9 -10 -10
-8 -8 -8 -8 -8 -9 -9 -9 -9 -9 -9 -9 -9 -8 -8 -8 -8 -8 -8 -8 -8 -9 -9 -9 -9 -9 -9 -9 -9 -9 -9 -9 -9 -10 -10 -10 -10 -10 -10 -10 -10 -10
-8 -8 -8 -8 -9 -9 -9 -9 -9 -9 -9 -9 -9 -9 -8 -8 -9 -8 -8 -9 -9 -9 -9 -9 -9 -9 -9 -9 -9 -9 -9 -10 -10 -10 -10 -10 -10 -10 -10 -10 -10 -10
-8 -8 -8 -8 -9 -9 -9 -9 -9 -10 -10 -10 -9 -9 -9 -9 -9 -9 -9 -9 -9 -9 -9 -9 -9 -9 -9 -9 -9 -9 -10 -10 -10 -10 -10 -10 -10 -10 -10 -10 -10 -11
-8 -8 -8 -9 -9 -9 -9 -9 -10 -10 -10 -10 -9 -9 -9 -9 -9 -9 -9 -9 -9 -9 -9 -9 -9 -9 -9 -9 -9 -10 -10 -10 -10 -10 -10 -10 -10 -10 -10 -11 -11 -11
-8 -8 -8 -9 -9 -9 -9 -10 -10 -10 -10 -10 -9 -9 -9 -9 -9 -9 -9 -9 -9 -9 -9 -9 -9 -9 -9 -9 -9 -10 -10 -10 -10 -10 -10 -10 -10 -10 -11 -11 -11 -11
-8 -9 -9 -9 -9 -9 -10 -10 -10 -10 -10 -10 -10 -9 -9 -10 -10 -9 -10 -10 -10 -10 -9 -9 -9 -9 -9 -9 -9 -10 -10 -10 -10 -10 -10 -11 -11 -11 -11 -11 -11 -12
-9 -9 -9 -9 -9 -10 -10 -10 -10 -10 -10 -10 -10 -9 -9 -10 -10 -10 -10 -10 -10 -10 -10 -9 -9 -9 -9 -10 -10 -10 -10 -10 -11 -11 -11 -11 -11 -11 -11 -12 -12 -12
-9 -9 -9 -9 -10 -10 -10 -10 -11 -10 -10 -10 -10 -9 -10 -10 -10 -10 -10 -10 -10 -10 -10 -10 -10 -10 -10 -10 -10 -10 -11 -11 -11 -11 -11 -11 -11 -11 -12 -12 -12 -12
-9 -9 -9 -9 -9 -10 -10 -10 -11 -10 -10 -10 -10 -10 -10 -10 -10 -10 -10 -10 -10 -10 -10 -10 -10 -10 -10 -11 -11 -11 -11 -11 -11 -11 -11 -11 -12 -12 -12 -12 -12 -12
-9 -8 -8 -8 -9 -9 -9 -10 -10 -11 -11 -11 -10 -10 -10 -10 -10 -10 -10 -10 -10 -10 -10 -10 -10 -10 -10 -11 -11 -11 -11 -11 -11 -11 -12 -12 -12 -12 -12 -12 -12 -12
-8 -8 -8 -9 -9 -9 -10 -10 -10 -10 -11 -11 -10 -10 -10 -10 -10 -10 -10 -10 -10 -10 -10 -10 -10 -10 -11 -11 -11 -11 -11 -11 -11 -11 -12 -12 -12 -12 -12 -12 -12 -12
-8 -8 -9 -9 -9 -9 -10 -10 -10 -10 -11 -11 -11 -11 -11 -11 -11 -11 -11 -10 -10 -10 -10 -10 -11 -11 -11 -11 -11 -11 -11 -11 -12 -12 -12 -12 -12 -12 -12 -12 -12 -12
-8 -9 -9 -9 -9 -9 -9 -10 -10 -10 -10 -10 -11 -11 -11 -11 -11 -11 -11 -11 -10 -11 -11 -11 -11 -11 -11 -11 -11 -11 -11 -12 -12 -12 -12 -12 -12 -12 -12 -12 -12 -13
-8 -8 -9 -9 -9 -8 -9 -9 -10 -10 -10 -10 -11 -11 -11 -11 -11 -11 -11 -11 -11 -11 -11 -12 -12 -11 -11 -11 -11 -11 -12 -12 -12 -12 -12 -12 -12 -12 -12 -13 -13 -13
-8 -8 -8 -9 -8 -8 -9 -10 -10 -10 -10 -10 -11 -11 -11 -11 -11 -11 -11 -11 -11 -11 -12 -12 -12 -12 -12 -11 -11 -12 -12 -12 -12 -12 -12 -12 -12 -12 -13 -13 -13 -13
-8 -8 -8 -8 -8 -9 -10 -10 -10 -10 -10 -11 -11 -11 -11 -11 -11 -11 -11 -11 -11 -12 -12 -12 -12 -12 -12 -12 -12 -12 -12 -12 -12 -12 -12 -12 -12 -13 -13 -13 -13 -13
-8 -9 -8 -8 -9 -10 -10 -10 -10 -10 -11 -11 -11 -11 -11 -11 -11 -11 -11 -11 -11 -12 -12 -12 -12 -12 -12 -12 -12 -12 -12 -12 -12 -13 -13 -13 -13 -13 -13 -13 -14 -14
Height
5891 5891 5890 5889 5888 5886 5884 5883 5882 5881 5880 5879 5879 5878 5877 5876 5876 5875 5874 5872 5871 5869 5868 5867 5866 5865 5863 5862 5861 5860 5859 5857 5855 5854 5852 5851 5849 5848 5847 5845 5843 5841
5889 5888 5887 5887 5886 5884 5883 5882 5880 5879 5879 5878 5877 5876 5875 5875 5874 5873 5871 5870 5868 5866 5865 5864 5863 5862 5860 5859 5858 5857 5855 5854 5852 5850 5848 5847 5845 5844 5843 5841 5839 5837
5886 5885 5885 5884 5883 5882 5881 5880 5879 5878 5877 5876 5875 5874 5873 5872 5871 5870 5869 5867 5865 5864 5862 5861 5860 5859 5858 5856 5855 5853 5852 5850 5849 5847 5845 5844 5842 5840 5839 5838 5836 5834
5884 5883 5882 5881 5880 5879 5878 5877 5876 5875 5874 5873 5872 5871 5870 5870 5869 5868 5866 5865 5863 5861 5859 5858 5857 5856 5855 5853 5852 5850 5849 5847 5846 5844 5842 5840 5838 5836 5835 5834 5832 5830
5881 5880 5879 5877 5876 5876 5875 5874 5873 5872 5871 5870 5869 5868 5867 5867 5866 5865 5864 5862 5860 5858 5857 5855 5854 5853 5851 5850 5849 5847 5846 5844 5843 5841 5838 5836 5834 5832 5830 5828 5826 5825
5878 5877 5876 5874 5873 5873 5872 5871 5870 5869 5869 5868 5867 5866 5865 5864 5863 5862 5861 5859 5858 5856 5854 5852 5851 5850 5848 5847 5845 5844 5842 5840 5839 5837 5834 5832 5830 5828 5825 5823 5821 5819
5875 5874 5873 5872 5870 5869 5868 5868 5867 5867 5866 5865 5864 5863 5862 5861 5860 5858 5857 5856 5855 5853 5851 5850 5848 5846 5845 5843 5841 5839 5838 5836 5834 5832 5830 5828 5826 5823 5821 5818 5816 5814
5872 5870 5869 5868 5867 5866 5865 5864 5864 5863 5862 5861 5860 5859 5858 5857 5856 5855 5854 5853 5851 5850 5848 5846 5845 5843 5841 5839 5837 5835 5834 5832 5830 5828 5826 5824 5821 5819 5816 5814 5811 5809
5868 5866 5865 5864 5863 5862 5861 5861 5860 5859 5858 5857 5856 5856 5855 5854 5852 5851 5850 5849 5848 5846 5845 5843 5841 5839 5837 5835 5833 5831 5830 5828 5826 5824 5822 5820 5817 5815 5812 5809 5807 5804
5865 5863 5861 5861 5860 5859 5858 5857 5855 5854 5853 5853 5852 5852 5851 5850 5849 5847 5846 5845 5844 5843 5841 5839 5837 5836 5833 5831 5829 5828 5826 5824 5823 5820 5818 5815 5813 5811 5808 5805 5802 5800
5861 5858 5857 5857 5857 5856 5855 5853 5851 5850 5850 5849 5848 5848 5847 5846 5845 5844 5842 5841 5840 5839 5837 5836 5834 5831 5829 5827 5825 5824 5822 5821 5819 5816 5814 5811 5809 5806 5803 5800 5798 5795
5856 5854 5853 5854 5853 5852 5851 5849 5847 5846 5846 5846 5845 5844 5844 5843 5841 5840 5838 5837 5836 5835 5834 5832 5829 5827 5825 5823 5821 5820 5818 5816 5814 5812 5809 5807 5804 5801 5798 5795 5792 5789
5851 5850 5849 5849 5848 5847 5846 5845 5844 5843 5843 5842 5841 5840 5839 5838 5837 5836 5834 5833 5832 5831 5830 5828 5825 5823 5821 5819 5817 5815 5813 5812 5810 5808 5805 5802 5799 5796 5793 5790 5787 5784
5847 5845 5844 5844 5843 5843 5842 5841 5840 5840 5840 5839 5838 5836 5835 5833 5833 5832 5830 5829 5828 5827 5826 5824 5821 5819 5817 5815 5813 5811 5809 5807 5805 5803 5800 5797 5794 5791 5787 5784 5781 5778
5843 5839 5837 5837 5838 5838 5837 5836 5835 5836 5835 5835 5834 5832 5830 5828 5828 5827 5826 5825 5823 5823 5821 5819 5817 5815 5812 5810 5808 5806 5804 5803 5801 5798 5795 5791 5788 5785 5782 5778 5775 5772
5838 5834 5832 5832 5833 5833 5831 5830 5830 5830 5830 5830 5829 5828 5826 5824 5823 5822 5821 5820 5819 5818 5817 5815 5813 5810 5808 5806 5804 5802 5800 5798 5796 5792 5789 5786 5783 5780 5777 5773 5770 5766
5832 5827 5826 5826 5825 5824 5824 5824 5825 5826 5826 5826 5826 5824 5822 5820 5819 5818 5817 5815 5815 5814 5812 5810 5808 5806 5804 5802 5800 5798 5796 5794 5790 5787 5784 5781 5778 5775 5772 5768 5764 5761
5824 5820 5819 5819 5819 5819 5818 5819 5821 5821 5822 5822 5822 5820 5817 5815 5814 5813 5812 5810 5810 5808 5807 5805 5803 5801 5799 5797 5795 5793 5791 5788 5785 5782 5779 5776 5772 5769 5766 5763 5759 5756
5822 5820 5819 5819 5819 5819 5817 5816 5816 5817 5817 5817 5817 5815 5813 5811 5809 5807 5806 5805 5804 5803 5802 5800 5798 5796 5794 5792 5790 5788 5786 5783 5780 5776 5773 5770 5767 5764 5760 5757 5754 5751
5822 5822 5821 5818 5816 5813 5811 5810 5810 5810 5811 5811 5811 5810 5808 5806 5804 5802 5801 5801 5799 5798 5796 5794 5793 5791 5789 5787 5785 5783 5780 5777 5774 5770 5767 5764 5761 5758 5754 5751 5748 5746
5816 5816 5814 5811 5809 5807 5803 5803 5804 5804 5804 5805 5805 5804 5802 5800 5799 5798 5797 5796 5795 5792 5791 5789 5787 5786 5784 5782 5780 5777 5774 5771 5768 5764 5761 5758 5755 5752 5749 5745 5743 5740
5808 5807 5806 5804 5804 5801 5796 5796 5798 5799 5798 5799 5799 5799 5797 5795 5794 5794 5793 5792 5790 5787 5785 5783 5782 5780 5779 5777 5774 5771 5768 5765 5762 5759 5755 5752 5749 5746 5743 5739 5737 5734
5802 5801 5800 5800 5798 5794 5791 5792 5795 5794 5794 5795 5794 5793 5792 5791 5790 5789 5788 5787 5785 5783 5780 5778 5775 5775 5774 5771 5768 5765 5763 5759 5756 5753 5750 5746 5743 5740 5737 5733 5731 5729
5798 5796 5794 5793 5793 5790 5788 5791 5793 5791 5790 5789 5788 5787 5787 5786 5786 5785 5784 5782 5780 5778 5776 5773 5770 5769 5768 5765 5762 5760 5757 5754 5751 5748 5744 5741 5738 5734 5731 5728 5725 5723
5793 5792 5789 5787 5787 5786 5786 5789 5790 5787 5784 5782 5781 5782 5782 5782 5781 5780 5778 5777 5775 5773 5770 5768 5766 5764 5761 5759 5756 5754 5752 5749 5746 5743 5739 5736 5733 5729 5725 5722 5720 5718
5787 5788 5785 5782 5781 5782 5783 5785 5786 5784 5780 5776 5776 5778 5778 5777 5777 5775 5773 5773 5772 5769 5766 5764 5761 5759 5756 5754 5751 5749 5747 5745 5741 5738 5734 5731 5727 5723 5720 5717 5715 5713
Wind_Speed
19 20 21 21 21 21 22 23 25 26 26 27 28 28 28 28 27 26 26 25 24 22 21 22 23 24 25 27 28 30 31 33 34 35 35 35 35 35 34 34 35 36
19 21 22 21 20 20 21 23 25 26 27 28 28 28 27 26 26 25 25 24 23 23 22 22 24 26 27 29 30 31 33 34 35 36 37 37 37 37 36 36 37 38
21 22 23 23 22 21 20 22 23 25 27 28 28 27 26 26 26 26 24 23 23 23 23 24 26 27 29 30 31 32 34 35 36 36 37 38 38 38 38 37 38 39
24 25 26 25 24 23 21 21 23 25 27 27 27 27 27 26 27 26 25 24 24 24 25 26 27 29 30 31 32 33 34 35 36 37 39 39 39 40 39 38 38 39
26 26 28 28 26 25 24 24 24 26 28 28 27 27 27 27 27 27 26 25 25 25 26 27 29 30 31 32 33 35 36 36 37 38 40 40 40 40 40 40 40 40
29 29 30 30 29 27 26 26 27 28 28 28 27 27 27 28 28 28 27 26 26 26 27 28 30 30 31 33 34 36 36 37 38 40 41 41 41 41 41 41 42 43
30 33 32 31 31 29 26 25 27 28 27 27 27 27 27 29 29 29 28 28 28 27 28 29 30 31 32 33 35 36 37 38 40 41 41 41 41 41 42 43 44 45
31 33 33 33 33 31 27 25 26 28 28 29 29 28 28 29 29 29 29 29 29 30 30 31 31 31 33 35 36 37 38 40 42 42 41 40 40 41 43 45 46 46
32 34 34 34 34 31 29 29 30 31 30 30 31 30 29 29 29 29 29 29 30 32 32 32 32 33 34 36 37 38 39 41 43 42 41 41 41 42 44 46 46 46
35 36 36 35 33 31 32 33 33 33 32 32 33 32 31 30 29 29 29 30 31 33 33 33 33 34 36 37 39 39 40 42 42 43 42 42 42 44 45 46 46 46
37 38 38 37 33 31 34 35 34 33 33 33 34 33 31 31 30 29 29 30 32 33 34 34 34 36 38 39 39 40 40 41 42 42 43 43 44 45 46 46 47 48
39 40 39 38 34 33 35 36 35 34 33 34 35 34 32 31 30 29 29 30 32 33 34 35 36 37 38 39 40 39 39 40 41 42 43 43 44 45 46 47 48 48
40 41 40 38 37 35 36 37 37 35 33 34 37 37 35 32 30 29 31 32 33 34 34 36 37 38 39 39 39 38 39 41 41 42 43 43 44 46 47 48 48 46
42 43 43 40 38 38 38 38 37 35 34 36 38 37 35 33 31 31 32 33 34 35 36 37 38 39 39 38 38 40 42 42 40 41 42 43 45 46 48 47 46 45
42 44 45 43 40 38 38 40 38 35 34 35 35 35 34 33 32 32 33 35 35 36 37 38 39 39 37 38 41 42 39 38 39 41 43 45 47 47 47 46 45 44
42 45 46 43 40 39 40 41 39 35 34 35 34 33 33 32 32 33 35 36 37 37 37 38 38 37 37 38 38 36 34 38 43 45 45 47 48 47 45 44 43 42
43 47 46 41 39 40 40 40 38 35 34 34 33 32 31 31 32 34 35 36 38 38 38 37 37 36 36 36 35 35 40 45 47 45 46 48 48 46 44 43 42 42
46 47 45 42 42 42 40 38 36 37 36 34 32 30 31 32 33 33 34 36 38 39 38 37 36 37 36 37 38 42 45 46 45 46 48 48 47 46 44 43 42 42
46 45 44 45 44 44 45 42 39 39 40 37 33 30 31 33 33 33 34 36 39 40 38 37 38 39 38 39 41 44 46 47 47 48 48 48 47 47 45 44 43 43
43 44 45 46 46 47 48 44 41 41 40 37 33 31 32 33 33 33 34 36 39 39 38 38 40 41 41 41 43 46 48 49 49 49 48 48 48 47 46 45 45 44
43 44 45 47 47 47 48 47 43 39 35 34 33 32 32 33 33 34 35 37 38 37 37 39 41 42 42 43 45 47 49 50 49 49 48 48 47 47 46 46 45 44
46 44 44 46 47 49 53 50 40 33 31 33 35 34 34 34 34 34 35 37 37 37 39 41 42 41 42 44 46 49 50 50 49 48 48 47 47 47 46 45 44 42
49 46 46 47 46 49 51 43 32 30 31 33 35 36 35 34 33 34 36 37 36 37 38 39 40 40 42 45 48 49 50 49 48 48 48 47 47 47 46 45 43 42
48 45 46 46 42 40 38 31 28 31 34 35 36 36 34 33 33 35 36 36 36 37 37 39 42 44 46 47 48 49 49 48 48 48 48 47 47 46 45 43 43 42
41 38 41 41 36 32 30 30 32 37 39 38 35 33 32 32 33 35 35 35 36 39 39 41 44 46 47 48 49 48 48 49 49 48 47 47 46 45 43 42 42 42
36 34 36 38 35 30 31 33 34 36 34 31 31 33 32 32 33 34 34 34 36 39 40 43 45 47 48 49 49 48 49 49 48 48 47 46 45 43 42 41 42 42
Wind_Direction
279 279 281 283 286 291 294 294 293 294 294 294 295 296 298 300 300 302 303 302 300 300 301 301 302 302 302 303 305 308 312 315 317 317 317 317 316 316 316 314 313 313
286 286 285 283 284 287 289 289 289 290 290 291 292 294 296 297 298 299 299 299 299 300 301 301 302 302 301 303 305 309 312 315 316 317 317 318 318 317 317 315 314 314
297 298 296 292 289 288 287 286 285 286 287 289 291 294 295 295 295 295 296 297 298 300 301 302 302 302 301 302 304 308 311 313 314 316 316 317 317 316 316 315 314 314
301 304 303 299 295 289 286 285 285 285 287 289 292 294 295 294 292 292 294 297 299 301 302 303 303 301 300 301 303 305 308 311 313 314 314 315 315 315 314 315 314 314
301 304 304 301 297 292 287 286 288 289 289 291 292 293 294 293 291 290 292 296 299 301 303 303 302 301 300 301 302 304 307 311 313 313 313 313 313 313 314 314 315 315
300 302 303 301 298 296 291 288 288 290 293 294 293 293 293 294 291 288 290 295 298 301 302 302 302 302 302 303 303 306 309 312 313 313 312 312 312 312 314 315 316 317
297 298 300 299 297 296 292 287 285 287 293 296 295 293 292 291 289 287 290 294 298 301 302 302 303 304 305 306 307 309 311 313 312 312 312 312 313 314 316 317 318 318
292 293 296 296 295 295 291 286 284 285 292 296 295 292 290 288 288 289 291 294 297 301 303 304 305 306 307 308 309 310 311 311 311 311 312 314 316 317 318 319 319 318
291 291 292 292 293 293 289 286 284 285 291 294 293 291 288 287 290 293 293 295 299 302 304 306 306 306 307 308 308 308 309 310 310 310 311 314 317 319 318 317 317 317
291 290 290 290 291 290 287 286 283 284 289 292 292 292 289 289 293 296 296 298 301 303 304 305 304 304 306 307 307 307 308 309 310 310 311 313 315 316 316 315 314 315
291 290 290 290 290 288 285 284 281 281 287 290 290 292 292 290 293 298 300 301 303 303 304 303 303 304 307 307 308 308 308 309 310 311 312 312 313 313 314 314 314 315
290 290 291 291 289 285 283 283 280 279 284 288 290 292 294 291 292 300 305 304 304 302 301 302 304 307 308 307 308 308 308 309 311 312 312 312 312 313 313 314 315 316
290 289 290 288 285 282 281 282 281 278 280 286 290 294 296 293 292 299 306 305 303 301 301 304 307 307 306 306 307 308 308 309 310 311 311 312 313 313 313 315 316 316
290 289 288 286 283 281 279 281 282 279 279 283 287 293 298 295 291 295 303 305 302 300 301 304 305 305 305 305 306 307 308 308 309 311 312 313 314 314 315 316 317 316
288 285 285 285 285 282 279 279 279 277 276 279 285 292 297 295 289 290 297 302 302 300 301 302 303 304 304 304 305 306 306 307 310 312 313 315 317 318 317 317 316 315
285 281 283 286 287 284 280 277 275 273 274 279 286 291 293 292 287 286 293 300 301 299 299 300 302 304 304 307 309 308 308 310 313 314 316 318 319 318 317 316 315 314
285 282 283 284 281 277 276 275 271 270 274 280 286 289 290 289 287 286 291 298 300 298 296 297 303 305 306 309 312 311 311 313 314 315 316 318 318 318 317 316 314 313
285 280 278 278 273 270 271 273 271 269 272 278 285 289 289 289 288 288 292 297 299 296 292 294 304 309 308 308 310 311 313 314 315 315 316 318 318 318 318 316 314 312
282 274 275 278 275 271 271 272 270 269 270 274 280 285 287 287 288 288 292 296 297 294 289 291 302 309 308 308 310 311 313 314 315 316 317 318 319 318 318 316 313 311
286 278 279 281 278 274 270 268 270 273 270 267 271 281 286 286 286 287 290 294 295 293 290 292 300 306 307 308 310 312 313 314 316 317 317 318 318 318 317 315 312 311
292 285 281 278 277 274 267 266 272 276 270 261 265 279 286 285 284 285 288 293 295 296 296 297 301 304 306 307 308 310 312 314 315 316 317 318 318 317 315 313 312 311
291 286 281 278 279 273 267 267 272 271 264 260 266 279 286 285 283 283 286 291 296 300 302 302 302 303 305 306 307 309 312 314 315 316 317 318 317 315 313 312 311 311
289 287 282 279 279 275 270 270 271 269 266 266 270 278 284 283 280 281 286 292 298 303 305 304 303 305 308 308 308 310 312 314 314 315 317 317 315 313 312 311 311 312
291 291 286 280 273 269 272 274 275 277 275 271 273 279 283 281 278 281 287 292 298 303 304 302 304 308 309 309 309 311 312 313 314 315 316 316 314 312 311 312 313 314
289 290 291 282 266 262 273 281 285 287 280 271 274 283 283 279 279 284 289 293 298 303 304 305 307 308 309 309 310 312 312 313 314 315 315 315 313 312 312 314 315 316
286 288 289 279 264 266 278 283 287 289 278 269 280 290 286 282 283 287 289 292 296 300 303 308 309 308 308 310 311 311 312 313 314 315 314 313 312 313 314 316 316 316